AirNav   Air Wisconsin pilot careers
 
 703 users online  

U88 Garden Valley Airport
Garden Valley, Idaho, USA

GOING TO GARDEN VALLEY?


FAA INFORMATION EFFECTIVE 11 OCTOBER 2018

Location

FAA Identifier: U88
Lat/Long: 44-04-01.0000N / 115-55-52.6000W
44-04.016667N / 115-55.876667W
44.0669444 / -115.9312778
(estimated)
Elevation: 3177 ft. / 968.3 m (surveyed)
Variation: 17E (1985)
From city: 2 miles SE of GARDEN VALLEY, ID
Time zone: UTC -6 (UTC -7 during Standard Time)
Zip code: 83622

Airport Operations

Airport use: Open to the public
Activation date: 06/1967
Control tower: no
ARTCC: SALT LAKE CITY CENTER
FSS: BOISE FLIGHT SERVICE STATION
NOTAMs facility: BOI (NOTAM-D service available)
Attendance: UNATNDD
Wind indicator: yes
Segmented circle: yes
1/2 SEGMENTED CIRCLE.

Airport Communications

CTAF: 122.9

Nearby radio navigation aids

VOR radial/distance  VOR name  Freq  Var
BOIr003/32.9BOISE VORTAC113.3017E

Airport Services

Parking: tiedowns
Airframe service: NONE
Powerplant service: NONE
Bottled oxygen: NONE
Bulk oxygen: NONE

Runway Information

Runway 10/28

Dimensions: 3850 x 125 ft. / 1173 x 38 m
Surface: turf, in good condition
Runway edge markings: 10/28 EDGES & THLDS MARKED WITH WHITE ROCKS.
Gradient: E
Operational restrictions: RCMD LANDING RWY 10; TAKE-OFF RWY 28 IF WINDS ALLOW.
RUNWAY 10  RUNWAY 28
Latitude: 44-04.155167N44-03.879167N
Longitude: 115-56.272167W115-55.481000W
Elevation: 3125.0 ft.3177.0 ft.
Gradient: 1.4% UP
Traffic pattern: leftleft
Obstructions: 4 ft. fence, 80 ft. left of centerline4 ft. fence, 63 ft. right of centerline

Airport Ownership and Management from official FAA records

Ownership: Publicly-owned
Owner: STATE OF ID, ITD, DIV AERO
P.O. BOX 7129
BOISE, ID 83707-1129
Phone 208-334-8775
Manager: DIV ADMIN.
P.O. BOX 7129
BOISE, ID 83707-1129
Phone 208-334-8775

Airport Operational Statistics

Aircraft based on the field: 5
Single engine airplanes: 5
    
Aircraft operations: avg 49/week *
78% transient general aviation
18% local general aviation
2% military
2% air taxi
* for 12-month period ending 30 April 2018

Additional Remarks

NO WINTER MAINTENANCE.
USFS HELIPORT OPNS ADJACENT TO SE END OF ARPT.
WATCH FOR SPRINKLER HEADS ON RY.
ARPT LCTD IN MTN VALLEY.
NUMEROUS ADDITIONAL OBSTNS ON APCH ENDS OF BOTH RWYS.
NO TELEPHONE AVBL AT ARPT.

Instrument Procedures

There are no published instrument procedures at U88.

Some nearby airports with instrument procedures:

KBOI - Boise Air Terminal/Gowen Field (33 nm SW)
KMAN - Nampa Municipal Airport (39 nm SW)
KEUL - Caldwell Industrial Airport (40 nm SW)
S87 - Weiser Municipal Airport (45 nm W)
KONO - Ontario Municipal Airport (47 nm W)
 
Loc | Ops | Rwys | IFR | FBO | Links
Com | Nav | Svcs | Stats | Notes


 
Area around U88 (Garden Valley Airport)
 
Road maps at: MapQuest Bing Google
 
Aerial photo
WARNING: Photo may not be current or correct
Aerial photo of U88 (Garden Valley Airport)
Photo by C. Wayne Wright, NASA
Photo taken 06-Oct-2007

Do you have a better or more recent aerial photo of Garden Valley Airport that you would like to share? If so, please send us your photo.

 
Sectional chart

 
Airport distance calculator
Flying to Garden Valley Airport? Find the distance to fly.

From to U88

Sunrise and sunset
Times for 22-Oct-2018
 Local
(UTC-6)
 Zulu
(UTC)
Morning civil twilight07:3913:39
Sunrise08:0814:08
Sunset18:4800:48
Evening civil twilight19:1801:18

Current date and time
Zulu (UTC)  23-Oct-2018 03:39:30
Local (UTC-6)  22-Oct-2018 21:39:30
 
METAR
KBOI 
33nm SW 
230253Z 21006KT 10SM FEW120 15/05 A2997 RMK AO2 SLP141 T01500050 53008
KMAN 
39nm SW 
230315Z AUTO 00000KT 10SM 13/07 A2996 RMK A01
KEUL 
40nm SW 
230256Z AUTO 24003KT 10SM CLR 14/06 A2996 RMK AO2 SLP146 T01440056 53004
KSNT 
43nm E 
230251Z AUTO 16004KT 04/M02 A3012 RMK AO1 SLP185 T00441017 53005
KONO 
47nm W 
230310Z AUTO 25007KT 1 1/2SM HZ CLR 12/04 A2996 RMK AO2 T01220039
KMYL 
50nm N 
230251Z AUTO 17004KT 9SM BKN095 OVC110 11/03 A3003 RMK AO2 SLP170 T01060028 53007
TAF
KBOI 
33nm SW 
222059Z 2221/2318 32006KT P6SM VCSH SCT080 BKN120 FM230200 15006KT P6SM VCSH SCT070 BKN100 FM231200 14006KT P6SM BKN100
KEUL 
40nm SW 
221720Z 2218/2318 VRB05KT P6SM BKN120 FM230100 VRB04KT P6SM VCSH SCT080 BKN100 FM231200 VRB03KT P6SM SCT100
NOTAMs
Click for the latest NOTAMs
NOTAMs are issued by the DoD/FAA and will open in a separate window not controlled by AirNav.

 

 
 

Would you like to see your business listed on this page?

 If your business provides an interesting product or service to pilots, flight crews, aircraft, or users of the Garden Valley Airport, you should consider listing it here.  To start the listing process, click on the button below
 
Add a business
 

Other Pages about Garden Valley Airport

www.flyidaho.org/...
 
Update a link
 
Copyright © AirNav, LLC. All rights reserved. Privacy Policy  Contact